Stündliche Wetter Holobutiv

Heute, 22 Juni, Dienstag

Zeit Temperatur Niederschläge Wind Luftdruck Luftfeuchtigkeit
00:00 +19°C° 0 mm 2 m/S 731 mmHg 93%
01:00 +18°C° 0 mm 2 m/S 731 mmHg 92%
02:00 +18°C° 0 mm 2 m/S 731 mmHg 92%
03:00 +18°C° 0 mm 2 m/S 731 mmHg 92%
04:00 +18°C° 0 mm 2 m/S 731 mmHg 92%
05:00 +18°C° 0 mm 2 m/S 731 mmHg 92%
06:00 +19°C° 0 mm 2 m/S 731 mmHg 87%
07:00 +21°C° 0 mm 2 m/S 731 mmHg 83%
08:00 +24°C° 0 mm 2 m/S 731 mmHg 78%
09:00 +25°C° 0 mm 2 m/S 732 mmHg 72%
10:00 +27°C° 0 mm 2 m/S 732 mmHg 66%
11:00 +29°C° 0 mm 2 m/S 732 mmHg 60%
12:00 +29°C° 0.1 mm 2 m/S 732 mmHg 61%
13:00 +29°C° 0.1 mm 3 m/S 732 mmHg 61%
14:00 +29°C° 0.1 mm 3 m/S 732 mmHg 62%
15:00 +29°C° 0.2 mm 3 m/S 732 mmHg 65%
16:00 +29°C° 0.2 mm 3 m/S 732 mmHg 68%
17:00 +29°C° 0.2 mm 3 m/S 732 mmHg 70%
18:00 +27°C° 0.5 mm 3 m/S 732 mmHg 76%
19:00 +26°C° 0.5 mm 2 m/S 732 mmHg 82%
20:00 +24°C° 0.5 mm 2 m/S 732 mmHg 88%
21:00 +23°C° 0 mm 2 m/S 732 mmHg 89%
22:00 +21°C° 0 mm 2 m/S 732 mmHg 89%
23:00 +22°C° 0 mm 1 m/S 732 mmHg 90%

Morgen, 23 Juni, Mittwoch

Zeit Temperatur Niederschläge Wind Luftdruck Luftfeuchtigkeit
00:00 +21°C° 0 mm 1 m/S 732 mmHg 90%
01:00 +20°C° 0 mm 2 m/S 732 mmHg 90%
02:00 +20°C° 0 mm 2 m/S 732 mmHg 90%
03:00 +21°C° 0 mm 1 m/S 733 mmHg 90%
04:00 +21°C° 0 mm 1 m/S 733 mmHg 89%
05:00 +21°C° 0 mm 1 m/S 733 mmHg 88%
06:00 +22°C° 0 mm 1 m/S 733 mmHg 85%
07:00 +23°C° 0 mm 1 m/S 734 mmHg 81%
08:00 +25°C° 0 mm 1 m/S 734 mmHg 78%
09:00 +26°C° 0 mm 1 m/S 734 mmHg 74%
10:00 +27°C° 0 mm 1 m/S 734 mmHg 69%
11:00 +29°C° 0 mm 1 m/S 735 mmHg 65%
12:00 +29°C° 0.3 mm 1 m/S 735 mmHg 64%
13:00 +30°C° 0.3 mm 2 m/S 735 mmHg 63%
14:00 +30°C° 0.3 mm 2 m/S 735 mmHg 63%
15:00 +30°C° 0.3 mm 2 m/S 735 mmHg 64%
16:00 +30°C° 0.3 mm 2 m/S 735 mmHg 66%
17:00 +30°C° 0.3 mm 2 m/S 735 mmHg 67%
18:00 +28°C° 0.6 mm 1 m/S 735 mmHg 72%
19:00 +27°C° 0.6 mm 1 m/S 735 mmHg 76%
20:00 +25°C° 0.6 mm 1 m/S 735 mmHg 81%
21:00 +24°C° 0.1 mm 1 m/S 735 mmHg 83%
22:00 +24°C° 0.1 mm 1 m/S 735 mmHg 85%
23:00 +23°C° 0.1 mm 1 m/S 735 mmHg 87%

übermorgen, 24 Juni, Donnerstag

Zeit Temperatur Niederschläge Wind Luftdruck Luftfeuchtigkeit
00:00 +22°C° 0.1 mm 1 m/S 735 mmHg 88%
01:00 +22°C° 0.1 mm 1 m/S 735 mmHg 89%
02:00 +22°C° 0.1 mm 1 m/S 735 mmHg 90%
03:00 +21°C° 0.1 mm 1 m/S 735 mmHg 90%
04:00 +21°C° 0.1 mm 1 m/S 735 mmHg 91%
05:00 +21°C° 0.1 mm 1 m/S 735 mmHg 92%
06:00 +22°C° 0 mm 1 m/S 735 mmHg 88%
07:00 +24°C° 0 mm 1 m/S 736 mmHg 85%
08:00 +26°C° 0 mm 1 m/S 736 mmHg 82%
09:00 +27°C° 0 mm 1 m/S 736 mmHg 76%
10:00 +29°C° 0 mm 1 m/S 736 mmHg 70%
11:00 +30°C° 0 mm 1 m/S 736 mmHg 64%
12:00 +31°C° 0.1 mm 1 m/S 736 mmHg 62%
13:00 +31°C° 0.1 mm 1 m/S 736 mmHg 59%
14:00 +32°C° 0.1 mm 2 m/S 735 mmHg 57%
15:00 +31°C° 0.2 mm 2 m/S 735 mmHg 60%
16:00 +31°C° 0.2 mm 2 m/S 735 mmHg 63%
17:00 +31°C° 0.2 mm 2 m/S 735 mmHg 66%
18:00 +29°C° 0.4 mm 2 m/S 735 mmHg 72%
19:00 +27°C° 0.4 mm 2 m/S 735 mmHg 78%
20:00 +26°C° 0.4 mm 2 m/S 735 mmHg 84%
21:00 +25°C° 0.1 mm 2 m/S 735 mmHg 86%
22:00 +24°C° 0.1 mm 1 m/S 734 mmHg 88%
23:00 +23°C° 0.1 mm 1 m/S 734 mmHg 89%

25 Juni, Freitag

Zeit Temperatur Niederschläge Wind Luftdruck Luftfeuchtigkeit
00:00 +22°C° 0 mm 1 m/S 734 mmHg 89%
01:00 +21°C° 0 mm 2 m/S 734 mmHg 89%
02:00 +21°C° 0 mm 2 m/S 734 mmHg 89%
03:00 +21°C° 0.1 mm 2 m/S 734 mmHg 89%
04:00 +21°C° 0.1 mm 2 m/S 733 mmHg 88%
05:00 +20°C° 0.1 mm 2 m/S 733 mmHg 88%
06:00 +23°C° 0 mm 2 m/S 733 mmHg 83%
07:00 +25°C° 0 mm 2 m/S 733 mmHg 79%
08:00 +27°C° 0 mm 2 m/S 733 mmHg 74%
09:00 +29°C° 0 mm 3 m/S 733 mmHg 67%
10:00 +31°C° 0 mm 3 m/S 733 mmHg 60%
11:00 +33°C° 0 mm 3 m/S 733 mmHg 53%
12:00 +34°C° 0 mm 3 m/S 733 mmHg 50%
13:00 +35°C° 0 mm 3 m/S 733 mmHg 48%
14:00 +36°C° 0 mm 3 m/S 733 mmHg 45%
15:00 +35°C° 0.1 mm 3 m/S 733 mmHg 49%
16:00 +34°C° 0.1 mm 3 m/S 732 mmHg 53%
17:00 +33°C° 0.1 mm 3 m/S 732 mmHg 57%
18:00 +29°C° 0.4 mm 3 m/S 732 mmHg 67%
19:00 +26°C° 0.4 mm 4 m/S 732 mmHg 76%
20:00 +22°C° 0.4 mm 4 m/S 732 mmHg 85%
21:00 +22°C° 0 mm 4 m/S 732 mmHg 86%
22:00 +21°C° 0 mm 3 m/S 732 mmHg 88%
23:00 +21°C° 0 mm 3 m/S 733 mmHg 89%

26 Juni, Samstag

Zeit Temperatur Niederschläge Wind Luftdruck Luftfeuchtigkeit
00:00 +20°C° 0 mm 3 m/S 733 mmHg 90%
01:00 +19°C° 0 mm 3 m/S 734 mmHg 91%
02:00 +19°C° 0 mm 3 m/S 734 mmHg 93%
03:00 +18°C° 0 mm 3 m/S 734 mmHg 93%
04:00 +18°C° 0 mm 2 m/S 735 mmHg 94%
05:00 +18°C° 0 mm 2 m/S 735 mmHg 95%
06:00 +18°C° 0 mm 3 m/S 735 mmHg 91%
07:00 +18°C° 0 mm 3 m/S 735 mmHg 87%
08:00 +19°C° 0 mm 3 m/S 735 mmHg 83%
09:00 +20°C° 0 mm 3 m/S 735 mmHg 78%
10:00 +21°C° 0 mm 3 m/S 735 mmHg 73%
11:00 +22°C° 0 mm 3 m/S 735 mmHg 67%
12:00 +22°C° 0.1 mm 3 m/S 735 mmHg 67%
13:00 +24°C° 0.1 mm 2 m/S 735 mmHg 66%
14:00 +24°C° 0.1 mm 2 m/S 735 mmHg 66%
15:00 +24°C° 0.3 mm 2 m/S 735 mmHg 67%
16:00 +24°C° 0.3 mm 2 m/S 735 mmHg 69%
17:00 +24°C° 0.3 mm 1 m/S 735 mmHg 70%
18:00 +23°C° 0.1 mm 1 m/S 734 mmHg 74%
19:00 +22°C° 0.1 mm 1 m/S 734 mmHg 77%
20:00 +22°C° 0.1 mm 1 m/S 734 mmHg 80%
21:00 +21°C° 0.1 mm 1 m/S 734 mmHg 81%
22:00 +21°C° 0.1 mm 1 m/S 735 mmHg 82%
23:00 +20°C° 0.1 mm 1 m/S 735 mmHg 83%

27 Juni, Sonntag

Zeit Temperatur Niederschläge Wind Luftdruck Luftfeuchtigkeit
00:00 +20°C° 0.1 mm 1 m/S 735 mmHg 85%
01:00 +20°C° 0.1 mm 1 m/S 735 mmHg 87%
02:00 +19°C° 0.1 mm 1 m/S 735 mmHg 89%
03:00 +19°C° 0 mm 1 m/S 735 mmHg 90%
04:00 +18°C° 0 mm 1 m/S 735 mmHg 90%
05:00 +18°C° 0 mm 1 m/S 735 mmHg 91%
06:00 +19°C° 0 mm 1 m/S 735 mmHg 87%
07:00 +20°C° 0 mm 1 m/S 735 mmHg 84%
08:00 +20°C° 0 mm 2 m/S 736 mmHg 80%
09:00 +21°C° 0.2 mm 2 m/S 736 mmHg 76%
10:00 +21°C° 0.2 mm 2 m/S 736 mmHg 72%
11:00 +23°C° 0.2 mm 2 m/S 736 mmHg 68%
12:00 +24°C° 0.1 mm 3 m/S 736 mmHg 66%
13:00 +24°C° 0.1 mm 3 m/S 736 mmHg 64%
14:00 +25°C° 0.1 mm 3 m/S 736 mmHg 62%
15:00 +25°C° 0.1 mm 2 m/S 736 mmHg 64%
16:00 +25°C° 0.1 mm 2 m/S 736 mmHg 66%
17:00 +24°C° 0.1 mm 1 m/S 735 mmHg 67%
18:00 +23°C° 0.1 mm 1 m/S 735 mmHg 72%
19:00 +22°C° 0.1 mm 1 m/S 735 mmHg 77%
20:00 +21°C° 0.1 mm 1 m/S 735 mmHg 82%
21:00 +20°C° 0 mm 1 m/S 735 mmHg 85%
22:00 +19°C° 0 mm 1 m/S 735 mmHg 87%
23:00 +18°C° 0 mm 1 m/S 736 mmHg 90%
Mehr zeigen

Wir brauchen deine Erlaubnis

Meteoprog und unser Service Anbieter werden persönliche Daten aufbewahren, so wie Cookies, Geräte Bezeichnung oder ähnliche Technologien von deinem Gerät und Prozess, so wie Persönliche Daten Inhalte und Werbungen, genauso wie social Media und den Verkehr zu analysieren.

  • Aufbewahrung und/oder Zugang zu deiner Geräte Informationen.

    Cookies, Geräte Bezeichnung oder andere Informationen, können aufbewahrt oder Zugang zu deinem Gerät erhalten, für den Grund, der oben angegeben wird.

  • Personalisierte Werbung und Inhalte, Messungen, Einblick in das Publikum und Produkt Entwicklung.

    Werbungen und Inhalte können personalisiert werden, basierend auf ein Profil. Mehr Daten können besser personalisierte Werbungen und Inhalte hinzufügen. Werbung und Inhalte können gezeigt und gemessen werden. Einblicke über das Publikum, welche die Werbung gesehen haben und den Inhalt, können abgeleitet werden. So wie Daten können genutzt werden, um es zu verbessern oder die Benutzer Erfahrung zu verbessern das System und die Software.

Wenn du “Ich stimme zu” klickst, erlaubst du uns, die Cookies zu benutzen die Geräte Bezeichnung, den Web oder ähnliche Technologien zu benutzen. Deine Settings, können in deinem Gerät bei deinem Browser geändert werden.

Für den bestimmten Zweck, berechtigten Interessen beruhen darauf, mehr als auf den Inhalt. Du kannst mehr darüber in unseren Privaten und Cookie Politik lesen.